Flag for Norway Weather past 2 weeks in Langesund, Norway

Now
63 °F

Mild.


Feels Like: 63 °F
Forecast: 55 / 59 °F
Wind: 3 mph from East

Location: Jomfruland Fyr

Current Time: Aug 29, 2014 at 12:57:51 PM

Latest Report: Aug 29, 2014 at 12:00 PM


Visibility: N/A

Pressure: 29.96 "Hg

Humidity: 72%

Dew point: 53 °F

Location of LangesundLocation

Historic Weather in Langesund — Graph

°F

Langesund temperature yesterday

Maximum temperature yesterday: 65 °F (at 3:00 PM)
Minimum temperature yesterday: 56 °F (at 6:00 AM)
Average temperature yesterday: 61 °F

Past Weeks' High & Low Weather Summary

 TemperatureHumidityPressure
High69 °F (Aug 16, 2:00 PM)92% (Aug 14, 10:00 AM)29.99 "Hg (Aug 14, 10:00 AM)
Low50 °F (Aug 18, 7:00 AM)36% (Aug 21, 4:00 PM)29.18 "Hg (Aug 18, 8:00 AM)
Average59 °F73%29.61 "Hg
* Reported Aug 14 10:00 AM — Aug 29 10:00 AM, Langesund, Weather by CustomWeather, © 2014

Note: Actual official high and low records may vary slightly from our data, if they occured in-between our weather recording intervals... More about our weather records

Advertising

Langesund weather history for previous 24 hours

 ConditionsComfort  
Time TempWeatherWind HumidityBarometerVisibility
10:00 AM
Aug 29
61 °FCool.5 mph81%29.97 "HgN/A
9:00 AM58 °FCool.3 mph87%29.97 "HgN/A
8:00 AM56 °FCool.3 mph89%29.97 "HgN/A
7:00 AM55 °FCool.3 mph91%29.96 "HgN/A
6:00 AM55 °FCool.3 mph90%29.96 "HgN/A
5:00 AM57 °FCool.3 mph91%29.97 "HgN/A
4:00 AM57 °FCool.3 mph92%29.97 "HgN/A
3:00 AM56 °FCool.3 mph91%29.97 "HgN/A
2:00 AM58 °FCool.3 mph90%29.97 "HgN/A
1:00 AM57 °FCool.1 mph88%29.97 "HgN/A
12:00 AM57 °FCool.1 mph87%29.97 "HgN/A
11:00 PM
Aug 28
58 °FCool.1 mph88%29.97 "HgN/A
10:00 PM59 °FCool.2 mph85%29.96 "HgN/A
9:00 PM59 °FCool.2 mph83%29.96 "HgN/A
8:00 PM61 °FCool.2 mph76%29.96 "HgN/A
7:00 PM62 °FCool.3 mph68%29.96 "HgN/A
6:00 PM63 °FMild.3 mph67%29.97 "HgN/A
5:00 PM64 °FMild.2 mph63%29.97 "HgN/A
4:00 PM65 °FMild.3 mph58%29.98 "HgN/A
3:00 PM65 °FMild.2 mph57%29.98 "HgN/A
2:00 PM65 °FMild.2 mph57%29.98 "HgN/A
1:00 PM64 °FMild.2 mph58%29.98 "HgN/A
12:00 PM64 °FMild.3 mph55%29.99 "HgN/A
Weather by CustomWeather, © 2014

See weather overviewHow to use our weather pages